Location: Heiligenberg
(48.5381°N, 7.3897°E)
Time: 20:36:56
(UTC+00:00)

CZ-2D R/B - Pass Details

Date: 26 May 2022
Orbit: 791 x 845 km, 98.7° (Epoch: 02 July)

Event Time Altitude Azimuth Distance (km) Brightness Sun altitude
Rises 02:31:56 0° 6° (N) 3,387 6.3 -9.1°
Reaches altitude 10° 02:34:38 10° 355° (N) 2,440 5.2 -8.8°
Maximum altitude 02:39:01 26° 300° (WNW) 1,558 3.5 -8.3°
Drops below altitude 10° 02:43:21 10° 245° (WSW) 2,398 4.0 -7.8°
Enters shadow 02:43:49 - 242° (WSW) 2,546 4.1 -7.7°
